Simultaneous Nadir Overpasses (SNOs) Predictions

Prediction of SNOs between LANDSAT-8 and NOAA-19 Satellite Orbit:

Table of predicted SNOs for the next 14.0 days since TLE Epoch: 4/27/2019
Index Date (LANDSAT-8) Time (LANDSAT-8) Lat,Lon (LANDSAT-8) SZA (LANDSAT-8 ) Date (NOAA-19) Time (NOAA-19) Lat,Lon (NOAA-19) SZA (NOAA-19 ) Distance(km) Time Diff (sec)
1 04/28/2019 10:49:46 -78.71,-143.71 114.81 04/28/2019 10:48:56 -78.70,-143.60 114.82 2.46 50
2 04/28/2019 11:39:11 78.70, 23.88 65.17 04/28/2019 11:40:01 78.70, 23.69 65.17 4.03 50
3 04/30/2019 16:23:27 78.72, -47.08 64.52 04/30/2019 16:22:28 78.72, -47.00 64.51 1.75 59
4 04/30/2019 17:12:55 -78.69, 120.42 115.53 04/30/2019 17:13:22 -78.69, 120.48 115.52 1.36 27
5 05/02/2019 21:57:04 -79.00, 51.10 115.77 05/02/2019 21:55:59 -79.04, 47.30 116.01 80.71 65
6 05/02/2019 22:46:37 78.70,-142.97 63.82 05/02/2019 22:46:55 78.71,-142.99 63.84 1.46 18
7 05/05/2019 04:20:21 -78.70, -46.41 116.83 05/05/2019 04:20:17 -78.73, -46.37 116.80 3.29 4
8 05/07/2019 09:54:02 78.75, 50.41 62.61 05/07/2019 09:53:49 78.75, 50.22 62.59 4.10 13
9 05/07/2019 10:43:31 -78.69,-142.29 117.48 05/07/2019 10:44:44 -78.72,-142.32 117.43 3.92 73
10 05/09/2019 15:27:46 -78.75, 146.99 117.99 05/09/2019 15:27:11 -78.74, 146.99 118.01 0.97 35




NCC Satellite Simultaneous Nadir Overpasses (SNOs) Prediction Service
